Year,Month,Day,Hour,Minute,Value (Times are PST for temperature in C)
2010,07,07,00,00,20.70
2010,07,07,00,01,20.70
2010,07,07,00,02,20.70
2010,07,07,00,03,20.70
2010,07,07,00,04,20.70
2010,07,07,00,05,20.60
2010,07,07,00,06,20.60
2010,07,07,00,07,20.60
2010,07,07,00,08,20.60
2010,07,07,00,09,20.60
2010,07,07,00,10,20.60
2010,07,07,00,11,20.60
2010,07,07,00,12,20.60
2010,07,07,00,13,20.60
2010,07,07,00,14,20.60
2010,07,07,00,15,20.60
2010,07,07,00,16,20.60
2010,07,07,00,17,20.60
2010,07,07,00,18,20.60
2010,07,07,00,19,20.70
2010,07,07,00,20,20.70
2010,07,07,00,21,20.70
2010,07,07,00,22,20.70
2010,07,07,00,23,20.70
2010,07,07,00,24,20.70
2010,07,07,00,25,20.70
2010,07,07,00,26,20.70
2010,07,07,00,27,20.70
2010,07,07,00,28,20.60
2010,07,07,00,29,20.60
2010,07,07,00,30,20.60
2010,07,07,00,31,20.60
2010,07,07,00,32,20.60
2010,07,07,00,33,20.50
2010,07,07,00,34,20.50
2010,07,07,00,35,20.50
2010,07,07,00,36,20.40
2010,07,07,00,37,20.40
2010,07,07,00,38,20.40
2010,07,07,00,39,20.40
2010,07,07,00,40,20.40
2010,07,07,00,41,20.40
2010,07,07,00,42,20.40
2010,07,07,00,43,20.40
2010,07,07,00,44,20.40
2010,07,07,00,45,20.40
2010,07,07,00,46,20.30
2010,07,07,00,47,20.30
2010,07,07,00,48,20.30
2010,07,07,00,49,20.30
2010,07,07,00,50,20.20
2010,07,07,00,51,20.20
2010,07,07,00,52,20.20
2010,07,07,00,53,20.20
2010,07,07,00,54,20.10
2010,07,07,00,55,20.10
2010,07,07,00,56,20.10
2010,07,07,00,57,20.00
2010,07,07,00,58,20.00
2010,07,07,00,59,20.00
2010,07,07,01,00,20.00
2010,07,07,01,01,20.00
2010,07,07,01,02,19.90
2010,07,07,01,03,19.90
2010,07,07,01,04,19.90
2010,07,07,01,05,20.00
2010,07,07,01,06,20.00
2010,07,07,01,07,20.00
2010,07,07,01,08,20.00
2010,07,07,01,09,20.00
2010,07,07,01,10,20.00
2010,07,07,01,11,20.00
2010,07,07,01,12,19.90
2010,07,07,01,13,19.90
2010,07,07,01,14,19.90
2010,07,07,01,15,19.90
2010,07,07,01,16,19.90
2010,07,07,01,17,19.90
2010,07,07,01,18,19.90
2010,07,07,01,19,19.90
2010,07,07,01,20,19.90
2010,07,07,01,21,19.90
2010,07,07,01,22,19.80
2010,07,07,01,23,19.80
2010,07,07,01,24,19.80
2010,07,07,01,25,19.80
2010,07,07,01,26,19.70
2010,07,07,01,27,19.70
2010,07,07,01,28,19.60
2010,07,07,01,29,19.60
2010,07,07,01,30,19.50
2010,07,07,01,31,19.50
2010,07,07,01,32,19.40
2010,07,07,01,33,19.40
2010,07,07,01,34,19.30
2010,07,07,01,35,19.30
2010,07,07,01,36,19.20
2010,07,07,01,37,19.10
2010,07,07,01,38,19.10
2010,07,07,01,39,19.00
2010,07,07,01,40,18.90
2010,07,07,01,41,18.80
2010,07,07,01,42,18.70
2010,07,07,01,43,18.60
2010,07,07,01,44,18.50
2010,07,07,01,45,18.30
2010,07,07,01,46,18.20
2010,07,07,01,47,18.10
2010,07,07,01,48,18.00
2010,07,07,01,49,17.90
2010,07,07,01,50,17.80
2010,07,07,01,51,17.70
2010,07,07,01,52,17.60
2010,07,07,01,53,17.50
2010,07,07,01,54,17.50
2010,07,07,01,55,17.40
2010,07,07,01,56,17.30
2010,07,07,01,57,17.30
2010,07,07,01,58,17.20
2010,07,07,01,59,17.10
2010,07,07,02,00,17.10
2010,07,07,02,01,17.10
2010,07,07,02,02,17.00
2010,07,07,02,03,16.90
2010,07,07,02,04,16.90
2010,07,07,02,05,16.90
2010,07,07,02,06,16.80
2010,07,07,02,07,16.80
2010,07,07,02,08,16.70
2010,07,07,02,09,16.70
2010,07,07,02,10,16.60
2010,07,07,02,11,16.60
2010,07,07,02,12,16.50
2010,07,07,02,13,16.50
2010,07,07,02,14,16.40
2010,07,07,02,15,16.30
2010,07,07,02,16,16.30
2010,07,07,02,17,16.30
2010,07,07,02,18,16.20
2010,07,07,02,19,16.20
2010,07,07,02,20,16.20
2010,07,07,02,21,16.10
2010,07,07,02,22,16.10
2010,07,07,02,23,16.10
2010,07,07,02,24,16.10
2010,07,07,02,25,16.10
2010,07,07,02,26,16.10
2010,07,07,02,27,16.10
2010,07,07,02,28,16.10
2010,07,07,02,29,16.20
2010,07,07,02,30,16.20
2010,07,07,02,31,16.30
2010,07,07,02,32,16.40
2010,07,07,02,33,16.50
2010,07,07,02,34,16.60
2010,07,07,02,35,16.60
2010,07,07,02,36,16.70
2010,07,07,02,37,16.70
2010,07,07,02,38,16.70
2010,07,07,02,39,16.70
2010,07,07,02,40,16.70
2010,07,07,02,41,16.70
2010,07,07,02,42,16.70
2010,07,07,02,43,16.60
2010,07,07,02,44,16.60
2010,07,07,02,45,16.50
2010,07,07,02,46,16.40
2010,07,07,02,47,16.40
2010,07,07,02,48,16.40
2010,07,07,02,49,16.40
2010,07,07,02,50,16.40
2010,07,07,02,51,16.40
2010,07,07,02,52,16.40
2010,07,07,02,53,16.40
2010,07,07,02,54,16.40
2010,07,07,02,55,16.50
2010,07,07,02,56,16.60
2010,07,07,02,57,16.70
2010,07,07,02,58,16.80
2010,07,07,02,59,16.90
2010,07,07,03,00,17.00
2010,07,07,03,01,17.10
2010,07,07,03,02,17.20
2010,07,07,03,03,17.30
2010,07,07,03,04,17.30
2010,07,07,03,05,17.30
2010,07,07,03,06,17.30
2010,07,07,03,07,17.30
2010,07,07,03,08,17.20
2010,07,07,03,09,17.10
2010,07,07,03,10,17.00
2010,07,07,03,11,16.90
2010,07,07,03,12,16.80
2010,07,07,03,13,16.80
2010,07,07,03,14,16.70
2010,07,07,03,15,16.60
2010,07,07,03,16,16.50
2010,07,07,03,17,16.40
2010,07,07,03,18,16.40
2010,07,07,03,19,16.30
2010,07,07,03,20,16.20
2010,07,07,03,21,16.20
2010,07,07,03,22,16.10
2010,07,07,03,23,16.10
2010,07,07,03,24,16.00
2010,07,07,03,25,15.90
2010,07,07,03,26,15.90
2010,07,07,03,27,15.90
2010,07,07,03,28,15.90
2010,07,07,03,29,15.90
2010,07,07,03,30,16.00
2010,07,07,03,31,16.00
2010,07,07,03,32,16.10
2010,07,07,03,33,16.20
2010,07,07,03,34,16.40
2010,07,07,03,35,16.50
2010,07,07,03,36,16.60
2010,07,07,03,37,16.60
2010,07,07,03,38,16.70
2010,07,07,03,39,16.70
2010,07,07,03,40,16.70
2010,07,07,03,41,16.60
2010,07,07,03,42,16.60
2010,07,07,03,43,16.60
2010,07,07,03,44,16.60
2010,07,07,03,45,16.70
2010,07,07,03,46,16.70
2010,07,07,03,47,16.70
2010,07,07,03,48,16.70
2010,07,07,03,49,16.70
2010,07,07,03,50,16.80
2010,07,07,03,51,16.70
2010,07,07,03,52,16.70
2010,07,07,03,53,16.70
2010,07,07,03,54,16.70
2010,07,07,03,55,16.70
2010,07,07,03,56,16.70
2010,07,07,03,57,16.70
2010,07,07,03,58,16.70
2010,07,07,03,59,16.60
2010,07,07,04,00,16.60
2010,07,07,04,01,16.60
2010,07,07,04,02,16.50
2010,07,07,04,03,16.50
2010,07,07,04,04,16.50
2010,07,07,04,05,16.50
2010,07,07,04,06,16.40
2010,07,07,04,07,16.40
2010,07,07,04,08,16.40
2010,07,07,04,09,16.40
2010,07,07,04,10,16.40
2010,07,07,04,11,16.40
2010,07,07,04,12,16.40
2010,07,07,04,13,16.40
2010,07,07,04,14,16.30
2010,07,07,04,15,16.30
2010,07,07,04,16,16.20
2010,07,07,04,17,16.20
2010,07,07,04,18,16.10
2010,07,07,04,19,16.00
2010,07,07,04,20,16.00
2010,07,07,04,21,15.90
2010,07,07,04,22,15.90
2010,07,07,04,23,15.80
2010,07,07,04,24,15.70
2010,07,07,04,25,15.70
2010,07,07,04,26,15.60
2010,07,07,04,27,15.60
2010,07,07,04,28,15.60
2010,07,07,04,29,15.50
2010,07,07,04,30,15.50
2010,07,07,04,31,15.40
2010,07,07,04,32,15.40
2010,07,07,04,33,15.40
2010,07,07,04,34,15.30
2010,07,07,04,35,15.30
2010,07,07,04,36,15.30
2010,07,07,04,37,15.30
2010,07,07,04,38,15.30
2010,07,07,04,39,15.30
2010,07,07,04,40,15.30
2010,07,07,04,41,15.40
2010,07,07,04,42,15.40
2010,07,07,04,43,15.40
2010,07,07,04,44,15.40
2010,07,07,04,45,15.40
2010,07,07,04,46,15.40
2010,07,07,04,47,15.50
2010,07,07,04,48,15.50
2010,07,07,04,49,15.50
2010,07,07,04,50,15.60
2010,07,07,04,51,15.70
2010,07,07,04,52,15.70
2010,07,07,04,53,15.80
2010,07,07,04,54,15.80
2010,07,07,04,55,15.80
2010,07,07,04,56,15.80
2010,07,07,04,57,15.90
2010,07,07,04,58,15.90
2010,07,07,04,59,15.80
2010,07,07,05,00,15.80
2010,07,07,05,01,15.80
2010,07,07,05,02,15.80
2010,07,07,05,03,15.80
2010,07,07,05,04,15.80
2010,07,07,05,05,15.80
2010,07,07,05,06,15.80
2010,07,07,05,07,15.80
2010,07,07,05,08,15.80
2010,07,07,05,09,15.80
2010,07,07,05,10,15.80
2010,07,07,05,11,15.80
2010,07,07,05,12,15.70
2010,07,07,05,13,15.70
2010,07,07,05,14,15.60
2010,07,07,05,15,15.50
2010,07,07,05,16,15.40
2010,07,07,05,17,15.40
2010,07,07,05,18,15.30
2010,07,07,05,19,15.30
2010,07,07,05,20,15.20
2010,07,07,05,21,15.10
2010,07,07,05,22,15.00
2010,07,07,05,23,15.00
2010,07,07,05,24,15.00
2010,07,07,05,25,15.00
2010,07,07,05,26,15.00
2010,07,07,05,27,15.00
2010,07,07,05,28,15.00
2010,07,07,05,29,15.00
2010,07,07,05,30,15.00
2010,07,07,05,31,15.00
2010,07,07,05,32,15.00
2010,07,07,05,33,15.00
2010,07,07,05,34,15.00
2010,07,07,05,35,15.00
2010,07,07,05,36,15.00
2010,07,07,05,37,15.00
2010,07,07,05,38,15.00
2010,07,07,05,39,15.00
2010,07,07,05,40,15.00
2010,07,07,05,41,15.10
2010,07,07,05,42,15.00
2010,07,07,05,43,15.00
2010,07,07,05,44,15.00
2010,07,07,05,45,15.00
2010,07,07,05,46,15.00
2010,07,07,05,47,15.00
2010,07,07,05,48,15.00
2010,07,07,05,49,15.00
2010,07,07,05,50,15.00
2010,07,07,05,51,15.00
2010,07,07,05,52,15.00
2010,07,07,05,53,15.00
2010,07,07,05,54,15.00
2010,07,07,05,55,15.10
2010,07,07,05,56,15.10
2010,07,07,05,57,15.20
2010,07,07,05,58,15.20
2010,07,07,05,59,15.30
2010,07,07,06,00,15.30
2010,07,07,06,01,15.40
2010,07,07,06,02,15.40
2010,07,07,06,03,15.50
2010,07,07,06,04,15.50
2010,07,07,06,05,15.60
2010,07,07,06,06,15.60
2010,07,07,06,07,15.70
2010,07,07,06,08,15.70
2010,07,07,06,09,15.70
2010,07,07,06,10,15.80
2010,07,07,06,11,15.80
2010,07,07,06,12,15.80
2010,07,07,06,13,15.90
2010,07,07,06,14,15.90
2010,07,07,06,15,16.00
2010,07,07,06,16,16.00
2010,07,07,06,17,16.10
2010,07,07,06,18,16.20
2010,07,07,06,19,16.30
2010,07,07,06,20,16.40
2010,07,07,06,21,16.40
2010,07,07,06,22,16.50
2010,07,07,06,23,16.60
2010,07,07,06,24,16.70
2010,07,07,06,25,16.80
2010,07,07,06,26,16.90
2010,07,07,06,27,16.90
2010,07,07,06,28,17.00
2010,07,07,06,29,17.10
2010,07,07,06,30,17.10
2010,07,07,06,31,17.10
2010,07,07,06,32,17.20
2010,07,07,06,33,17.20
2010,07,07,06,34,17.30
2010,07,07,06,35,17.40
2010,07,07,06,36,17.40
2010,07,07,06,37,17.50
2010,07,07,06,38,17.60
2010,07,07,06,39,17.60
2010,07,07,06,40,17.70
2010,07,07,06,41,17.70
2010,07,07,06,42,17.80
2010,07,07,06,43,17.80
2010,07,07,06,44,17.90
2010,07,07,06,45,17.90
2010,07,07,06,46,18.00
2010,07,07,06,47,18.00
2010,07,07,06,48,18.10
2010,07,07,06,49,18.10
2010,07,07,06,50,18.20
2010,07,07,06,51,18.20
2010,07,07,06,52,18.20
2010,07,07,06,53,18.30
2010,07,07,06,54,18.30
2010,07,07,06,55,18.30
2010,07,07,06,56,18.40
2010,07,07,06,57,18.50
2010,07,07,06,58,18.50
2010,07,07,06,59,18.60
2010,07,07,07,00,18.60
2010,07,07,07,01,18.70
2010,07,07,07,02,18.70
2010,07,07,07,03,18.80
2010,07,07,07,04,18.80
2010,07,07,07,05,18.80
2010,07,07,07,06,18.90
2010,07,07,07,07,18.90
2010,07,07,07,08,19.00
2010,07,07,07,09,19.00
2010,07,07,07,10,19.10
2010,07,07,07,11,19.10
2010,07,07,07,12,19.10
2010,07,07,07,13,19.10
2010,07,07,07,14,19.10
2010,07,07,07,15,19.20
2010,07,07,07,16,19.20
2010,07,07,07,17,19.20
2010,07,07,07,18,19.20
2010,07,07,07,19,19.30
2010,07,07,07,20,19.30
2010,07,07,07,21,19.30
2010,07,07,07,22,19.40
2010,07,07,07,23,19.40
2010,07,07,07,24,19.50
2010,07,07,07,25,19.50
2010,07,07,07,26,19.50
2010,07,07,07,27,19.60
2010,07,07,07,28,19.60
2010,07,07,07,29,19.60
2010,07,07,07,30,19.60
2010,07,07,07,31,19.60
2010,07,07,07,32,19.60
2010,07,07,07,33,19.60
2010,07,07,07,34,19.60
2010,07,07,07,35,19.70
2010,07,07,07,36,19.70
2010,07,07,07,37,19.80
2010,07,07,07,38,19.80
2010,07,07,07,39,19.80
2010,07,07,07,40,19.90
2010,07,07,07,41,19.90
2010,07,07,07,42,20.00
2010,07,07,07,43,20.00
2010,07,07,07,44,20.10
2010,07,07,07,45,20.10
2010,07,07,07,46,20.10
2010,07,07,07,47,20.10
2010,07,07,07,48,20.20
2010,07,07,07,49,20.20
2010,07,07,07,50,20.30
2010,07,07,07,51,20.30
2010,07,07,07,52,20.30
2010,07,07,07,53,20.30
2010,07,07,07,54,20.30
2010,07,07,07,55,20.20
2010,07,07,07,56,20.20
2010,07,07,07,57,20.20
2010,07,07,07,58,20.10
2010,07,07,07,59,20.10
2010,07,07,08,00,20.10
2010,07,07,08,01,20.10
2010,07,07,08,02,20.10
2010,07,07,08,03,20.20
2010,07,07,08,04,20.20
2010,07,07,08,05,20.20
2010,07,07,08,06,20.20
2010,07,07,08,07,20.20
2010,07,07,08,08,20.20
2010,07,07,08,09,20.20
2010,07,07,08,10,20.20
2010,07,07,08,11,20.30
2010,07,07,08,12,20.30
2010,07,07,08,13,20.30
2010,07,07,08,14,20.30
2010,07,07,08,15,20.30
2010,07,07,08,16,20.30
2010,07,07,08,17,20.30
2010,07,07,08,18,20.40
2010,07,07,08,19,20.40
2010,07,07,08,20,20.40
2010,07,07,08,21,20.40
2010,07,07,08,22,20.40
2010,07,07,08,23,20.40
2010,07,07,08,24,20.40
2010,07,07,08,25,20.40
2010,07,07,08,26,20.40
2010,07,07,08,27,20.40
2010,07,07,08,28,20.40
2010,07,07,08,29,20.40
2010,07,07,08,30,20.40
2010,07,07,08,31,20.40
2010,07,07,08,32,20.30
2010,07,07,08,33,20.30
2010,07,07,08,34,20.30
2010,07,07,08,35,20.30
2010,07,07,08,36,20.30
2010,07,07,08,37,20.40
2010,07,07,08,38,20.40
2010,07,07,08,39,20.40
2010,07,07,08,40,20.50
2010,07,07,08,41,20.50
2010,07,07,08,42,20.60
2010,07,07,08,43,20.60
2010,07,07,08,44,20.60
2010,07,07,08,45,20.60
2010,07,07,08,46,20.70
2010,07,07,08,47,20.70
2010,07,07,08,48,20.70
2010,07,07,08,49,20.70
2010,07,07,08,50,20.80
2010,07,07,08,51,20.80
2010,07,07,08,52,20.90
2010,07,07,08,53,20.90
2010,07,07,08,54,21.00
2010,07,07,08,55,21.10
2010,07,07,08,56,21.20
2010,07,07,08,57,21.20
2010,07,07,08,58,21.20
2010,07,07,08,59,21.20
2010,07,07,09,00,21.20
2010,07,07,09,01,21.10
2010,07,07,09,02,21.00
2010,07,07,09,03,21.00
2010,07,07,09,04,20.90
2010,07,07,09,05,20.90
2010,07,07,09,06,20.90
2010,07,07,09,07,20.80
2010,07,07,09,08,20.80
2010,07,07,09,09,20.80
2010,07,07,09,10,20.80
2010,07,07,09,11,20.80
2010,07,07,09,12,20.70
2010,07,07,09,13,20.70
2010,07,07,09,14,20.70
2010,07,07,09,15,20.80
2010,07,07,09,16,20.80
2010,07,07,09,17,20.80
2010,07,07,09,18,20.80
2010,07,07,09,19,20.80
2010,07,07,09,20,20.80
2010,07,07,09,21,20.70
2010,07,07,09,22,20.70
2010,07,07,09,23,20.70
2010,07,07,09,24,20.70
2010,07,07,09,25,20.60
2010,07,07,09,26,20.60
2010,07,07,09,27,20.60
2010,07,07,09,28,20.60
2010,07,07,09,29,20.60
2010,07,07,09,30,20.60
2010,07,07,09,31,20.50
2010,07,07,09,32,20.40
2010,07,07,09,33,20.40
2010,07,07,09,34,20.40
2010,07,07,09,35,20.30
2010,07,07,09,36,20.30
2010,07,07,09,37,20.30
2010,07,07,09,38,20.30
2010,07,07,09,39,20.20
2010,07,07,09,40,20.20
2010,07,07,09,41,20.20
2010,07,07,09,42,20.10
2010,07,07,09,43,20.10
2010,07,07,09,44,20.00
2010,07,07,09,45,19.90
2010,07,07,09,46,19.90
2010,07,07,09,47,19.80
2010,07,07,09,48,19.80
2010,07,07,09,49,19.80
2010,07,07,09,50,19.80
2010,07,07,09,51,19.80
2010,07,07,09,52,19.70
2010,07,07,09,53,19.80
2010,07,07,09,54,19.80
2010,07,07,09,55,19.70
2010,07,07,09,56,19.80
2010,07,07,09,57,19.80
2010,07,07,09,58,19.80
2010,07,07,09,59,19.90
2010,07,07,10,00,19.90
2010,07,07,10,01,19.90
2010,07,07,10,02,19.90
2010,07,07,10,03,19.90
2010,07,07,10,04,19.80
2010,07,07,10,05,19.80
2010,07,07,10,06,19.80
2010,07,07,10,07,19.80
2010,07,07,10,08,19.80
2010,07,07,10,09,19.90
2010,07,07,10,10,19.90
2010,07,07,10,11,19.90
2010,07,07,10,12,20.00
2010,07,07,10,13,20.00
2010,07,07,10,14,20.10
2010,07,07,10,15,20.10
2010,07,07,10,16,20.20
2010,07,07,10,17,20.30
2010,07,07,10,18,20.30
2010,07,07,10,19,20.40
2010,07,07,10,20,20.50
2010,07,07,10,21,20.50
2010,07,07,10,22,20.60
2010,07,07,10,23,20.60
2010,07,07,10,24,20.50
2010,07,07,10,25,20.50
2010,07,07,10,26,20.40
2010,07,07,10,27,20.40
2010,07,07,10,28,20.50
2010,07,07,10,29,20.50
2010,07,07,10,30,20.60
2010,07,07,10,31,20.60
2010,07,07,10,32,20.60
2010,07,07,10,33,20.70
2010,07,07,10,34,20.70
2010,07,07,10,35,20.70
2010,07,07,10,36,20.80
2010,07,07,10,37,20.80
2010,07,07,10,38,20.90
2010,07,07,10,39,21.00
2010,07,07,10,40,21.00
2010,07,07,10,41,21.10
2010,07,07,10,42,21.10
2010,07,07,10,43,21.10
2010,07,07,10,44,21.10
2010,07,07,10,45,21.10
2010,07,07,10,46,21.00
2010,07,07,10,47,21.00
2010,07,07,10,48,20.90
2010,07,07,10,49,21.00
2010,07,07,10,50,21.00
2010,07,07,10,51,21.10
2010,07,07,10,52,21.10
2010,07,07,10,53,21.20
2010,07,07,10,54,21.20
2010,07,07,10,55,21.30
2010,07,07,10,56,21.30
2010,07,07,10,57,21.30
2010,07,07,10,58,21.40
2010,07,07,10,59,21.40
2010,07,07,11,00,21.40
2010,07,07,11,01,21.40
2010,07,07,11,02,21.40
2010,07,07,11,03,21.40
2010,07,07,11,04,21.40
2010,07,07,11,05,21.40
2010,07,07,11,06,21.40
2010,07,07,11,07,21.40
2010,07,07,11,08,21.50
2010,07,07,11,09,21.60
2010,07,07,11,10,21.60
2010,07,07,11,11,21.60
2010,07,07,11,12,21.60
2010,07,07,11,13,21.50
2010,07,07,11,14,21.40
2010,07,07,11,15,21.40
2010,07,07,11,16,21.30
2010,07,07,11,17,21.30
2010,07,07,11,18,21.30
2010,07,07,11,19,21.30
2010,07,07,11,20,21.30
2010,07,07,11,21,21.30
2010,07,07,11,22,21.30
2010,07,07,11,23,21.30
2010,07,07,11,24,21.30
2010,07,07,11,25,21.40
2010,07,07,11,26,21.40
2010,07,07,11,27,21.50
2010,07,07,11,28,21.60
2010,07,07,11,29,21.80
2010,07,07,11,30,21.80
2010,07,07,11,31,21.90
2010,07,07,11,32,21.90
2010,07,07,11,33,21.90
2010,07,07,11,34,21.90
2010,07,07,11,35,21.90
2010,07,07,11,36,21.90
2010,07,07,11,37,21.90
2010,07,07,11,38,21.90
2010,07,07,11,39,21.90
2010,07,07,11,40,21.90
2010,07,07,11,41,21.90
2010,07,07,11,42,21.90
2010,07,07,11,43,21.80
2010,07,07,11,44,21.80
2010,07,07,11,45,21.80
2010,07,07,11,46,21.80
2010,07,07,11,47,21.80
2010,07,07,11,48,21.80
2010,07,07,11,49,21.90
2010,07,07,11,50,21.90
2010,07,07,11,51,22.00
2010,07,07,11,52,22.00
2010,07,07,11,53,22.10
2010,07,07,11,54,22.10
2010,07,07,11,55,22.10
2010,07,07,11,56,22.10
2010,07,07,11,57,22.10
2010,07,07,11,58,22.10
2010,07,07,11,59,22.00
2010,07,07,12,00,22.00
2010,07,07,12,01,22.00
2010,07,07,12,02,22.00
2010,07,07,12,03,22.00
2010,07,07,12,04,22.00
2010,07,07,12,05,21.90
2010,07,07,12,06,21.90
2010,07,07,12,07,21.90
2010,07,07,12,08,21.90
2010,07,07,12,09,21.80
2010,07,07,12,10,21.80
2010,07,07,12,11,21.80
2010,07,07,12,12,21.80
2010,07,07,12,13,21.90
2010,07,07,12,14,21.90
2010,07,07,12,15,21.90
2010,07,07,12,16,22.00
2010,07,07,12,17,22.00
2010,07,07,12,18,22.10
2010,07,07,12,19,22.10
2010,07,07,12,20,22.10
2010,07,07,12,21,22.20
2010,07,07,12,22,22.20
2010,07,07,12,23,22.30
2010,07,07,12,24,22.30
2010,07,07,12,25,22.40
2010,07,07,12,26,22.40
2010,07,07,12,27,22.40
2010,07,07,12,28,22.40
2010,07,07,12,29,22.50
2010,07,07,12,30,22.60
2010,07,07,12,31,22.70
2010,07,07,12,32,22.80
2010,07,07,12,33,22.90
2010,07,07,12,34,23.00
2010,07,07,12,35,23.00
2010,07,07,12,36,23.00
2010,07,07,12,37,23.00
2010,07,07,12,38,23.10
2010,07,07,12,39,23.10
2010,07,07,12,40,23.10
2010,07,07,12,41,23.10
2010,07,07,12,42,23.10
2010,07,07,12,43,23.10
2010,07,07,12,44,23.10
2010,07,07,12,45,23.10
2010,07,07,12,46,23.10
2010,07,07,12,47,23.00
2010,07,07,12,48,23.00
2010,07,07,12,49,23.00
2010,07,07,12,50,23.00
2010,07,07,12,51,23.10
2010,07,07,12,52,23.10
2010,07,07,12,53,23.20
2010,07,07,12,54,23.30
2010,07,07,12,55,23.40
2010,07,07,12,56,23.40
2010,07,07,12,57,23.40
2010,07,07,12,58,23.50
2010,07,07,12,59,23.50
2010,07,07,13,00,23.60
2010,07,07,13,01,23.60
2010,07,07,13,02,23.70
2010,07,07,13,03,23.80
2010,07,07,13,04,23.80
2010,07,07,13,05,23.90
2010,07,07,13,06,24.00
2010,07,07,13,07,24.10
2010,07,07,13,08,24.10
2010,07,07,13,09,24.20
2010,07,07,13,10,24.20
2010,07,07,13,11,24.20
2010,07,07,13,12,24.20
2010,07,07,13,13,24.20
2010,07,07,13,14,24.10
2010,07,07,13,15,24.00
2010,07,07,13,16,23.90
2010,07,07,13,17,23.90
2010,07,07,13,18,23.80
2010,07,07,13,19,23.80
2010,07,07,13,20,23.80
2010,07,07,13,21,23.70
2010,07,07,13,22,23.70
2010,07,07,13,23,23.80
2010,07,07,13,24,23.90
2010,07,07,13,25,24.00
2010,07,07,13,26,24.00
2010,07,07,13,27,24.10
2010,07,07,13,28,24.20
2010,07,07,13,29,24.20
2010,07,07,13,30,24.20
2010,07,07,13,31,24.20
2010,07,07,13,32,24.20
2010,07,07,13,33,24.20
2010,07,07,13,34,24.20
2010,07,07,13,35,24.20
2010,07,07,13,36,24.20
2010,07,07,13,37,24.30
2010,07,07,13,38,24.30
2010,07,07,13,39,24.40
2010,07,07,13,40,24.60
2010,07,07,13,41,24.70
2010,07,07,13,42,24.80
2010,07,07,13,43,25.00
2010,07,07,13,44,25.10
2010,07,07,13,45,25.20
2010,07,07,13,46,25.30
2010,07,07,13,47,25.40
2010,07,07,13,48,25.60
2010,07,07,13,49,25.70
2010,07,07,13,50,25.80
2010,07,07,13,51,25.90
2010,07,07,13,52,25.90
2010,07,07,13,53,26.00
2010,07,07,13,54,26.10
2010,07,07,13,55,26.20
2010,07,07,13,56,26.20
2010,07,07,13,57,26.30
2010,07,07,13,58,26.30
2010,07,07,13,59,26.30
2010,07,07,14,00,26.40
2010,07,07,14,01,26.40
2010,07,07,14,02,26.50
2010,07,07,14,03,26.50
2010,07,07,14,04,26.50
2010,07,07,14,05,26.40
2010,07,07,14,06,26.40
2010,07,07,14,07,26.40
2010,07,07,14,08,26.50
2010,07,07,14,09,26.50
2010,07,07,14,10,26.50
2010,07,07,14,11,26.60
2010,07,07,14,12,26.60
2010,07,07,14,13,26.60
2010,07,07,14,14,26.60
2010,07,07,14,15,26.70
2010,07,07,14,16,26.70
2010,07,07,14,17,26.80
2010,07,07,14,18,26.80
2010,07,07,14,19,26.80
2010,07,07,14,20,26.80
2010,07,07,14,21,26.80
2010,07,07,14,22,26.70
2010,07,07,14,23,26.70
2010,07,07,14,24,26.70
2010,07,07,14,25,26.70
2010,07,07,14,26,26.70
2010,07,07,14,27,26.80
2010,07,07,14,28,26.80
2010,07,07,14,29,26.80
2010,07,07,14,30,26.80
2010,07,07,14,31,26.80
2010,07,07,14,32,26.80
2010,07,07,14,33,26.80
2010,07,07,14,34,26.80
2010,07,07,14,35,26.80
2010,07,07,14,36,26.90
2010,07,07,14,37,26.90
2010,07,07,14,38,27.00
2010,07,07,14,39,27.00
2010,07,07,14,40,27.10
2010,07,07,14,41,27.10
2010,07,07,14,42,27.10
2010,07,07,14,43,27.20
2010,07,07,14,44,27.20
2010,07,07,14,45,27.20
2010,07,07,14,46,27.10
2010,07,07,14,47,27.10
2010,07,07,14,48,27.10
2010,07,07,14,49,27.00
2010,07,07,14,50,27.00
2010,07,07,14,51,26.90
2010,07,07,14,52,26.90
2010,07,07,14,53,26.90
2010,07,07,14,54,26.90
2010,07,07,14,55,26.90
2010,07,07,14,56,26.90
2010,07,07,14,57,26.90
2010,07,07,14,58,26.80
2010,07,07,14,59,26.80
2010,07,07,15,00,26.80
2010,07,07,15,01,26.70
2010,07,07,15,02,26.70
2010,07,07,15,03,26.70
2010,07,07,15,04,26.80
2010,07,07,15,05,26.80
2010,07,07,15,06,26.80
2010,07,07,15,07,26.80
2010,07,07,15,08,26.80
2010,07,07,15,09,26.80
2010,07,07,15,10,26.80
2010,07,07,15,11,26.80
2010,07,07,15,12,26.80
2010,07,07,15,13,26.80
2010,07,07,15,14,26.80
2010,07,07,15,15,26.90
2010,07,07,15,16,26.90
2010,07,07,15,17,26.90
2010,07,07,15,18,26.90
2010,07,07,15,19,26.90
2010,07,07,15,20,26.90
2010,07,07,15,21,26.90
2010,07,07,15,22,26.90
2010,07,07,15,23,27.00
2010,07,07,15,24,27.00
2010,07,07,15,25,27.10
2010,07,07,15,26,27.20
2010,07,07,15,27,27.20
2010,07,07,15,28,27.30
2010,07,07,15,29,27.40
2010,07,07,15,30,27.40
2010,07,07,15,31,27.50
2010,07,07,15,32,27.60
2010,07,07,15,33,27.60
2010,07,07,15,34,27.70
2010,07,07,15,35,27.70
2010,07,07,15,36,27.80
2010,07,07,15,37,27.80
2010,07,07,15,38,27.80
2010,07,07,15,39,27.80
2010,07,07,15,40,27.90
2010,07,07,15,41,27.90
2010,07,07,15,42,27.90
2010,07,07,15,43,27.90
2010,07,07,15,44,27.90
2010,07,07,15,45,27.90
2010,07,07,15,46,27.80
2010,07,07,15,47,27.80
2010,07,07,15,48,27.80
2010,07,07,15,49,27.80
2010,07,07,15,50,27.80
2010,07,07,15,51,27.80
2010,07,07,15,52,27.90
2010,07,07,15,53,27.90
2010,07,07,15,54,28.00
2010,07,07,15,55,28.00
2010,07,07,15,56,28.10
2010,07,07,15,57,28.00
2010,07,07,15,58,27.90
2010,07,07,15,59,27.90
2010,07,07,16,00,27.90
2010,07,07,16,01,27.90
2010,07,07,16,02,27.90
2010,07,07,16,03,27.90
2010,07,07,16,04,28.00
2010,07,07,16,05,28.00
2010,07,07,16,06,28.10
2010,07,07,16,07,28.10
2010,07,07,16,08,28.20
2010,07,07,16,09,28.20
2010,07,07,16,10,28.20
2010,07,07,16,11,28.30
2010,07,07,16,12,28.40
2010,07,07,16,13,28.40
2010,07,07,16,14,28.40
2010,07,07,16,15,28.40
2010,07,07,16,16,28.40
2010,07,07,16,17,28.30
2010,07,07,16,18,28.30
2010,07,07,16,19,28.40
2010,07,07,16,20,28.40
2010,07,07,16,21,28.50
2010,07,07,16,22,28.50
2010,07,07,16,23,28.50
2010,07,07,16,24,28.50
2010,07,07,16,25,28.60
2010,07,07,16,26,28.60
2010,07,07,16,27,28.60
2010,07,07,16,28,28.50
2010,07,07,16,29,28.50
2010,07,07,16,30,28.50
2010,07,07,16,31,28.40
2010,07,07,16,32,28.40
2010,07,07,16,33,28.40
2010,07,07,16,34,28.50
2010,07,07,16,35,28.50
2010,07,07,16,36,28.50
2010,07,07,16,37,28.50
2010,07,07,16,38,28.50
2010,07,07,16,39,28.50
2010,07,07,16,40,28.60
2010,07,07,16,41,28.60
2010,07,07,16,42,28.60
2010,07,07,16,43,28.60
2010,07,07,16,44,28.60
2010,07,07,16,45,28.60
2010,07,07,16,46,28.70
2010,07,07,16,47,28.70
2010,07,07,16,48,28.70
2010,07,07,16,49,28.70
2010,07,07,16,50,28.70
2010,07,07,16,51,28.70
2010,07,07,16,52,28.70
2010,07,07,16,53,28.70
2010,07,07,16,54,28.80
2010,07,07,16,55,28.80
2010,07,07,16,56,28.70
2010,07,07,16,57,28.70
2010,07,07,16,58,28.70
2010,07,07,16,59,28.70
2010,07,07,17,00,28.70
2010,07,07,17,01,28.70
2010,07,07,17,02,28.70
2010,07,07,17,03,28.70
2010,07,07,17,04,28.80
2010,07,07,17,05,28.90
2010,07,07,17,06,28.90
2010,07,07,17,07,29.00
2010,07,07,17,08,29.00
2010,07,07,17,09,29.10
2010,07,07,17,10,29.10
2010,07,07,17,11,29.10
2010,07,07,17,12,29.10
2010,07,07,17,13,29.10
2010,07,07,17,14,29.10
2010,07,07,17,15,29.10
2010,07,07,17,16,29.00
2010,07,07,17,17,29.00
2010,07,07,17,18,29.00
2010,07,07,17,19,29.00